Time,TemperatureF,DewpointF,PressureIn,WindDirection,WindDirectionDegrees,WindSpeedMPH,WindSpeedGustMPH,Humidity,HourlyPrecipIn,Conditions,Clouds,dailyrainin,SolarRadiationWatts/m^2,SoftwareType,DateUTC
2013-02-19 00:01:00,72.0,48.0,-100.00,East,86,15.0,43.0,43,0.00,,,0.00,0.000000,,2013-02-19 10:01:00,
2013-02-19 00:11:00,72.0,48.0,-100.00,East,86,15.0,43.0,43,0.00,,,0.00,0.000000,,2013-02-19 10:11:00,
2013-02-19 00:21:00,72.0,48.0,-100.00,East,86,15.0,43.0,43,0.00,,,0.00,0.000000,,2013-02-19 10:21:00,
2013-02-19 00:42:00,72.0,53.0,-100.00,ENE,57,16.0,36.0,51,0.00,,,0.00,0.000000,,2013-02-19 10:42:00,
2013-02-19 00:52:00,72.0,53.0,-100.00,ENE,57,16.0,36.0,51,0.00,,,0.00,0.000000,,2013-02-19 10:52:00,
2013-02-19 01:01:00,72.0,53.0,-100.00,ENE,57,16.0,36.0,51,0.00,,,0.00,0.000000,,2013-02-19 11:01:00,
2013-02-19 01:11:00,72.0,53.0,-100.00,ENE,57,16.0,36.0,51,0.00,,,0.00,0.000000,,2013-02-19 11:11:00,
2013-02-19 01:21:00,72.0,53.0,-100.00,ENE,57,16.0,36.0,51,0.00,,,0.00,0.000000,,2013-02-19 11:21:00,
2013-02-19 01:42:00,72.0,51.0,-100.00,ENE,71,21.0,40.0,47,0.00,,,0.00,0.000000,,2013-02-19 11:42:00,
2013-02-19 01:52:00,72.0,51.0,-100.00,ENE,71,21.0,40.0,47,0.00,,,0.00,0.000000,,2013-02-19 11:52:00,
2013-02-19 02:01:00,72.0,51.0,-100.00,ENE,71,21.0,40.0,47,0.00,,,0.00,0.000000,,2013-02-19 12:01:00,
2013-02-19 02:12:00,72.0,51.0,-100.00,ENE,71,21.0,40.0,47,0.00,,,0.00,0.000000,,2013-02-19 12:12:00,
2013-02-19 02:21:00,72.0,51.0,-100.00,ENE,71,21.0,40.0,47,0.00,,,0.00,0.000000,,2013-02-19 12:21:00,
2013-02-19 02:42:00,72.0,51.0,-100.00,ENE,68,17.0,38.0,47,0.00,,,0.00,0.000000,,2013-02-19 12:42:00,
2013-02-19 02:52:00,72.0,51.0,-100.00,ENE,68,17.0,38.0,47,0.00,,,0.00,0.000000,,2013-02-19 12:52:00,
2013-02-19 03:02:00,72.0,51.0,-100.00,ENE,68,17.0,38.0,47,0.00,,,0.00,0.000000,,2013-02-19 13:02:00,
2013-02-19 03:11:00,72.0,51.0,-100.00,ENE,68,17.0,38.0,47,0.00,,,0.00,0.000000,,2013-02-19 13:11:00,
2013-02-19 03:22:00,72.0,51.0,-100.00,ENE,68,17.0,38.0,47,0.00,,,0.00,0.000000,,2013-02-19 13:22:00,
2013-02-19 03:42:00,73.0,46.0,-100.00,ENE,73,12.0,35.0,38,0.00,,,0.00,0.000000,,2013-02-19 13:42:00,
2013-02-19 03:52:00,73.0,46.0,-100.00,ENE,73,12.0,35.0,38,0.00,,,0.00,0.000000,,2013-02-19 13:52:00,
2013-02-19 04:01:00,73.0,46.0,-100.00,ENE,73,12.0,35.0,38,0.00,,,0.00,0.000000,,2013-02-19 14:01:00,
2013-02-19 04:11:00,73.0,46.0,-100.00,ENE,73,12.0,35.0,38,0.00,,,0.00,0.000000,,2013-02-19 14:11:00,
2013-02-19 04:21:00,73.0,46.0,-100.00,ENE,73,12.0,35.0,38,0.00,,,0.00,0.000000,,2013-02-19 14:21:00,
2013-02-19 04:42:00,73.0,47.0,-100.00,ENE,58,11.0,35.0,39,0.00,,,0.00,0.000000,,2013-02-19 14:42:00,
2013-02-19 04:52:00,73.0,47.0,-100.00,ENE,58,11.0,35.0,39,0.00,,,0.00,0.000000,,2013-02-19 14:52:00,
2013-02-19 05:01:00,73.0,47.0,-100.00,ENE,58,11.0,35.0,39,0.00,,,0.00,0.000000,,2013-02-19 15:01:00,
2013-02-19 05:11:00,73.0,47.0,-100.00,ENE,58,11.0,35.0,39,0.00,,,0.00,0.000000,,2013-02-19 15:11:00,
2013-02-19 05:21:00,73.0,47.0,-100.00,ENE,58,11.0,35.0,39,0.00,,,0.00,0.000000,,2013-02-19 15:21:00,
2013-02-19 05:42:00,73.0,44.0,-100.00,East,88,13.0,36.0,36,0.00,,,0.00,0.000000,,2013-02-19 15:42:00,
2013-02-19 05:52:00,73.0,44.0,-100.00,East,88,13.0,36.0,36,0.00,,,0.00,0.000000,,2013-02-19 15:52:00,
2013-02-19 06:01:00,73.0,44.0,-100.00,East,88,13.0,36.0,36,0.00,,,0.00,0.000000,,2013-02-19 16:01:00,
2013-02-19 06:11:00,73.0,44.0,-100.00,East,88,13.0,36.0,36,0.00,,,0.00,0.000000,,2013-02-19 16:11:00,
2013-02-19 06:21:00,73.0,44.0,-100.00,East,88,13.0,36.0,36,0.00,,,0.00,0.000000,,2013-02-19 16:21:00,
2013-02-19 06:42:00,72.0,48.0,-100.00,East,94,14.0,27.0,42,0.00,,,0.00,0.000000,,2013-02-19 16:42:00,
2013-02-19 06:52:00,72.0,48.0,-100.00,East,94,14.0,27.0,42,0.00,,,0.00,0.000000,,2013-02-19 16:52:00,
2013-02-19 07:01:00,72.0,48.0,-100.00,East,94,14.0,27.0,42,0.00,,,0.00,0.000000,,2013-02-19 17:01:00,
2013-02-19 07:11:00,72.0,48.0,-100.00,East,94,14.0,27.0,42,0.00,,,0.00,0.000000,,2013-02-19 17:11:00,
2013-02-19 07:21:00,72.0,48.0,-100.00,East,94,14.0,27.0,42,0.00,,,0.00,0.000000,,2013-02-19 17:21:00,
2013-02-19 07:42:00,72.0,49.0,-100.00,ESE,108,10.0,31.0,45,0.00,,,0.00,1.000000,,2013-02-19 17:42:00,
2013-02-19 07:52:00,72.0,49.0,-100.00,ESE,108,10.0,31.0,45,0.00,,,0.00,1.000000,,2013-02-19 17:52:00,
2013-02-19 08:01:00,72.0,49.0,-100.00,ESE,108,10.0,31.0,45,0.00,,,0.00,1.000000,,2013-02-19 18:01:00,
2013-02-19 08:11:00,72.0,49.0,-100.00,ESE,108,10.0,31.0,45,0.00,,,0.00,1.000000,,2013-02-19 18:11:00,
2013-02-19 08:21:00,72.0,49.0,-100.00,ESE,108,10.0,31.0,45,0.00,,,0.00,1.000000,,2013-02-19 18:21:00,
2013-02-19 08:42:00,72.0,46.0,-100.00,East,95,11.0,39.0,40,0.00,,,0.00,107.000000,,2013-02-19 18:42:00,
2013-02-19 08:52:00,72.0,46.0,-100.00,East,95,11.0,39.0,40,0.00,,,0.00,107.000000,,2013-02-19 18:52:00,
2013-02-19 09:01:00,72.0,46.0,-100.00,East,95,11.0,39.0,40,0.00,,,0.00,107.000000,,2013-02-19 19:01:00,
2013-02-19 09:11:00,72.0,46.0,-100.00,East,95,11.0,39.0,40,0.00,,,0.00,107.000000,,2013-02-19 19:11:00,
2013-02-19 09:21:00,72.0,46.0,-100.00,East,95,11.0,39.0,40,0.00,,,0.00,107.000000,,2013-02-19 19:21:00,
2013-02-19 09:42:00,75.0,45.0,-100.00,ESE,106,16.0,40.0,35,0.00,,,0.00,362.000000,,2013-02-19 19:42:00,
2013-02-19 09:52:00,75.0,45.0,-100.00,ESE,106,16.0,40.0,35,0.00,,,0.00,362.000000,,2013-02-19 19:52:00,
2013-02-19 10:01:00,75.0,45.0,-100.00,ESE,106,16.0,40.0,35,0.00,,,0.00,362.000000,,2013-02-19 20:01:00,
2013-02-19 10:11:00,75.0,45.0,-100.00,ESE,106,16.0,40.0,35,0.00,,,0.00,362.000000,,2013-02-19 20:11:00,
2013-02-19 10:21:00,75.0,45.0,-100.00,ESE,106,16.0,40.0,35,0.00,,,0.00,362.000000,,2013-02-19 20:21:00,
2013-02-19 10:42:00,77.0,46.0,-100.00,ESE,102,13.0,35.0,34,0.00,,,0.00,583.000000,,2013-02-19 20:42:00,
2013-02-19 10:52:00,77.0,46.0,-100.00,ESE,102,13.0,35.0,34,0.00,,,0.00,583.000000,,2013-02-19 20:52:00,
2013-02-19 11:01:00,77.0,46.0,-100.00,ESE,102,13.0,35.0,34,0.00,,,0.00,583.000000,,2013-02-19 21:01:00,
2013-02-19 11:11:00,77.0,46.0,-100.00,ESE,102,13.0,35.0,34,0.00,,,0.00,583.000000,,2013-02-19 21:11:00,
2013-02-19 11:21:00,77.0,46.0,-100.00,ESE,102,13.0,35.0,34,0.00,,,0.00,583.000000,,2013-02-19 21:21:00,
2013-02-19 11:42:00,78.0,53.0,-100.00,ESE,110,17.0,41.0,42,0.00,,,0.00,755.000000,,2013-02-19 21:42:00,
2013-02-19 11:52:00,78.0,53.0,-100.00,ESE,110,17.0,41.0,42,0.00,,,0.00,755.000000,,2013-02-19 21:52:00,
2013-02-19 12:01:00,78.0,53.0,-100.00,ESE,110,17.0,41.0,42,0.00,,,0.00,755.000000,,2013-02-19 22:01:00,
2013-02-19 12:11:00,78.0,53.0,-100.00,ESE,110,17.0,41.0,42,0.00,,,0.00,755.000000,,2013-02-19 22:11:00,
2013-02-19 12:21:00,78.0,53.0,-100.00,ESE,110,17.0,41.0,42,0.00,,,0.00,755.000000,,2013-02-19 22:21:00,
2013-02-19 12:42:00,80.0,50.0,-100.00,East,86,18.0,39.0,35,0.00,,,0.00,872.000000,,2013-02-19 22:42:00,
2013-02-19 12:52:00,80.0,50.0,-100.00,East,86,18.0,39.0,35,0.00,,,0.00,872.000000,,2013-02-19 22:52:00,
2013-02-19 13:01:00,80.0,50.0,-100.00,East,86,18.0,39.0,35,0.00,,,0.00,872.000000,,2013-02-19 23:01:00,
2013-02-19 13:11:00,80.0,50.0,-100.00,East,86,18.0,39.0,35,0.00,,,0.00,872.000000,,2013-02-19 23:11:00,
2013-02-19 13:21:00,80.0,50.0,-100.00,East,86,18.0,39.0,35,0.00,,,0.00,872.000000,,2013-02-19 23:21:00,
2013-02-19 13:42:00,81.0,58.0,-100.00,WNW,296,9.0,36.0,45,0.00,,,0.00,914.000000,,2013-02-19 23:42:00,
2013-02-19 13:52:00,81.0,58.0,-100.00,WNW,296,9.0,36.0,45,0.00,,,0.00,914.000000,,2013-02-19 23:52:00,
2013-02-19 14:01:00,81.0,58.0,-100.00,WNW,296,9.0,36.0,45,0.00,,,0.00,914.000000,,2013-02-20 00:01:00,
2013-02-19 14:11:00,81.0,58.0,-100.00,WNW,296,9.0,36.0,45,0.00,,,0.00,914.000000,,2013-02-20 00:11:00,
2013-02-19 14:21:00,81.0,58.0,-100.00,WNW,296,9.0,36.0,45,0.00,,,0.00,914.000000,,2013-02-20 00:21:00,
2013-02-19 14:42:00,80.0,57.0,-100.00,West,263,10.0,34.0,46,0.00,,,0.00,886.000000,,2013-02-20 00:42:00,
2013-02-19 14:52:00,80.0,57.0,-100.00,West,263,10.0,34.0,46,0.00,,,0.00,886.000000,,2013-02-20 00:52:00,
2013-02-19 15:02:00,80.0,57.0,-100.00,West,263,10.0,34.0,46,0.00,,,0.00,886.000000,,2013-02-20 01:02:00,
2013-02-19 15:11:00,80.0,57.0,-100.00,West,263,10.0,34.0,46,0.00,,,0.00,886.000000,,2013-02-20 01:11:00,
2013-02-19 15:21:00,80.0,57.0,-100.00,West,263,10.0,34.0,46,0.00,,,0.00,886.000000,,2013-02-20 01:21:00,
2013-02-19 15:42:00,81.0,58.0,-100.00,West,261,7.0,15.0,46,0.00,,,0.00,784.000000,,2013-02-20 01:42:00,
2013-02-19 15:52:00,81.0,58.0,-100.00,West,261,7.0,15.0,46,0.00,,,0.00,784.000000,,2013-02-20 01:52:00,
2013-02-19 16:01:00,81.0,58.0,-100.00,West,261,7.0,15.0,46,0.00,,,0.00,784.000000,,2013-02-20 02:01:00,
2013-02-19 16:11:00,81.0,58.0,-100.00,West,261,7.0,15.0,46,0.00,,,0.00,784.000000,,2013-02-20 02:11:00,
2013-02-19 16:21:00,81.0,58.0,-100.00,West,261,7.0,15.0,46,0.00,,,0.00,784.000000,,2013-02-20 02:21:00,
2013-02-19 16:42:00,81.0,50.0,-100.00,WSW,238,5.0,14.0,34,0.00,,,0.00,609.000000,,2013-02-20 02:42:00,
2013-02-19 16:52:00,81.0,50.0,-100.00,WSW,238,5.0,14.0,34,0.00,,,0.00,609.000000,,2013-02-20 02:52:00,
2013-02-19 17:01:00,81.0,50.0,-100.00,WSW,238,5.0,14.0,34,0.00,,,0.00,609.000000,,2013-02-20 03:01:00,
2013-02-19 17:12:00,81.0,50.0,-100.00,WSW,238,5.0,14.0,34,0.00,,,0.00,609.000000,,2013-02-20 03:12:00,
2013-02-19 17:21:00,81.0,50.0,-100.00,WSW,238,5.0,14.0,34,0.00,,,0.00,609.000000,,2013-02-20 03:21:00,
2013-02-19 17:42:00,81.0,58.0,-100.00,West,269,5.0,10.0,46,0.00,,,0.00,395.000000,,2013-02-20 03:42:00,
2013-02-19 17:52:00,81.0,58.0,-100.00,West,269,5.0,10.0,46,0.00,,,0.00,395.000000,,2013-02-20 03:52:00,
2013-02-19 18:01:00,81.0,58.0,-100.00,West,269,5.0,10.0,46,0.00,,,0.00,395.000000,,2013-02-20 04:01:00,
2013-02-19 18:11:00,81.0,58.0,-100.00,West,269,5.0,10.0,46,0.00,,,0.00,395.000000,,2013-02-20 04:11:00,
2013-02-19 18:21:00,81.0,58.0,-100.00,West,269,5.0,10.0,46,0.00,,,0.00,395.000000,,2013-02-20 04:21:00,
2013-02-19 18:42:00,79.0,50.0,-100.00,West,261,5.0,15.0,37,0.00,,,0.00,164.000000,,2013-02-20 04:42:00,
2013-02-19 18:52:00,79.0,50.0,-100.00,West,261,5.0,15.0,37,0.00,,,0.00,164.000000,,2013-02-20 04:52:00,
2013-02-19 19:02:00,79.0,50.0,-100.00,West,261,5.0,15.0,37,0.00,,,0.00,164.000000,,2013-02-20 05:02:00,
2013-02-19 19:12:00,79.0,50.0,-100.00,West,261,5.0,15.0,37,0.00,,,0.00,164.000000,,2013-02-20 05:12:00,
2013-02-19 19:22:00,79.0,50.0,-100.00,West,261,5.0,15.0,37,0.00,,,0.00,164.000000,,2013-02-20 05:22:00,
2013-02-19 19:43:00,76.0,53.0,-100.00,ESE,116,9.0,31.0,45,0.00,,,0.00,9.000000,,2013-02-20 05:43:00,
2013-02-19 19:52:00,76.0,53.0,-100.00,ESE,116,9.0,31.0,45,0.00,,,0.00,9.000000,,2013-02-20 05:52:00,
2013-02-19 20:01:00,76.0,53.0,-100.00,ESE,116,9.0,31.0,45,0.00,,,0.00,9.000000,,2013-02-20 06:01:00,
2013-02-19 20:11:00,76.0,53.0,-100.00,ESE,116,9.0,31.0,45,0.00,,,0.00,9.000000,,2013-02-20 06:11:00,
2013-02-19 20:21:00,76.0,53.0,-100.00,ESE,116,9.0,31.0,45,0.00,,,0.00,9.000000,,2013-02-20 06:21:00,
2013-02-19 20:42:00,75.0,52.0,-100.00,East,80,6.0,17.0,45,0.00,,,0.00,0.000000,,2013-02-20 06:42:00,
2013-02-19 20:52:00,75.0,52.0,-100.00,East,80,6.0,17.0,45,0.00,,,0.00,0.000000,,2013-02-20 06:52:00,
2013-02-19 21:01:00,75.0,52.0,-100.00,East,80,6.0,17.0,45,0.00,,,0.00,0.000000,,2013-02-20 07:01:00,
2013-02-19 21:11:00,75.0,52.0,-100.00,East,80,6.0,17.0,45,0.00,,,0.00,0.000000,,2013-02-20 07:11:00,
2013-02-19 21:21:00,75.0,52.0,-100.00,East,80,6.0,17.0,45,0.00,,,0.00,0.000000,,2013-02-20 07:21:00,
2013-02-19 21:42:00,75.0,57.0,-100.00,North,5,5.0,13.0,54,0.00,,,0.00,0.000000,,2013-02-20 07:42:00,
2013-02-19 21:52:00,75.0,57.0,-100.00,North,5,5.0,13.0,54,0.00,,,0.00,0.000000,,2013-02-20 07:52:00,
2013-02-19 22:01:00,75.0,57.0,-100.00,North,5,5.0,13.0,54,0.00,,,0.00,0.000000,,2013-02-20 08:01:00,
2013-02-19 22:11:00,75.0,57.0,-100.00,North,5,5.0,13.0,54,0.00,,,0.00,0.000000,,2013-02-20 08:11:00,
2013-02-19 22:21:00,75.0,57.0,-100.00,North,5,5.0,13.0,54,0.00,,,0.00,0.000000,,2013-02-20 08:21:00,
2013-02-19 22:42:00,74.0,54.0,-100.00,SE,127,5.0,25.0,50,0.00,,,0.00,0.000000,,2013-02-20 08:42:00,
2013-02-19 22:52:00,74.0,54.0,-100.00,SE,127,5.0,25.0,50,0.00,,,0.00,0.000000,,2013-02-20 08:52:00,
2013-02-19 23:01:00,74.0,54.0,-100.00,SE,127,5.0,25.0,50,0.00,,,0.00,0.000000,,2013-02-20 09:01:00,
2013-02-19 23:11:00,74.0,54.0,-100.00,SE,127,5.0,25.0,50,0.00,,,0.00,0.000000,,2013-02-20 09:11:00,
2013-02-19 23:21:00,74.0,54.0,-100.00,SE,127,5.0,25.0,50,0.00,,,0.00,0.000000,,2013-02-20 09:21:00,
2013-02-19 23:42:00,72.0,54.0,-100.00,SE,128,16.0,32.0,53,0.00,,,0.00,0.000000,,2013-02-20 09:42:00,
2013-02-19 23:52:00,72.0,54.0,-100.00,SE,128,16.0,32.0,53,0.00,,,0.00,0.000000,,2013-02-20 09:52:00,